Regional Weather Roundup
Issued by NWS

Home | Current Version | Previous Version | Graphics & Text | Print | Product List | Glossary On
Versions: 1 2 3 4 5 6 7 8 9 10 11 12 13 14 15 16 17 18 19 20 21 22 23 24 25 26 27 28 29 30 31 32 33 34 35 36 37 38 39 40 41 42 43 44 45 46 47 48 49 50
000
ASUS45 KPSR 181810
RWRAZ

ARIZONA REGIONAL HOURLY WEATHER ROUNDUP
NATIONAL WEATHER SERVICE PHOENIX AZ
1100 AM MST SAT APR 18 2015

NOTE: FAIR INDICATES FEW OR NO CLOUDS BELOW 12,000 FEET WITH NO
SIGNIFICANT WEATHER AND/OR OBSTRUCTIONS TO VISIBILITY.

AZZ001>003-036-181900-
NORTHWEST ARIZONA

CITY           SKY/WX    TMP DP  RH WIND       PRES   REMARKS
BULLHEAD CITY  SUNNY     75  19  12 S5        29.96F
KINGMAN        SUNNY     75  16  10 N6        30.03F
6HR MIN TEMP:  39; 6HR MAX TEMP:  75;

$$

AZZ004>008-015-016-018-181900-
NORTH CENTRAL ARIZONA

CITY           SKY/WX    TMP DP  RH WIND       PRES   REMARKS
GRAND CANYON   SUNNY     59  20  22 NW10G17   30.11S
6HR MIN TEMP:  21; 6HR MAX TEMP:  59;

WILLIAMS       SUNNY     57  21  24 NW15      30.20S
PRESCOTT       SUNNY     66  20  17 N9        30.08F
6HR MIN TEMP:  37; 6HR MAX TEMP:  67;

FLAGSTAFF      SUNNY     58  18  21 N12G22    30.11S
6HR MIN TEMP:  32; 6HR MAX TEMP:  58;

PAYSON         SUNNY     64  21  19 W12G22    30.08F
PAGE           SUNNY     63  32  31 VRB5      30.02F
6HR MIN TEMP:  46; 6HR MAX TEMP:  63;

$$

AZZ009>014-017-181900-
NORTHEAST ARIZONA

CITY           SKY/WX    TMP DP  RH WIND       PRES   REMARKS
WINSLOW        SUNNY     65  27  23 NW16G22   30.05F
6HR MIN TEMP:  33; 6HR MAX TEMP:  65;

SAINT JOHNS    SUNNY     59  27  29 NW16G26   30.05F
6HR MIN TEMP:  45; 6HR MAX TEMP:  59; 6HR PCP: TRACE;

WINDOW ROCK    PTSUNNY   54  25  32 N16G29    30.04F
6HR MIN TEMP:  37; 6HR MAX TEMP:  55;

SHOW LOW       SUNNY     55  23  28 NW10      30.10F
$$

AZZ023-181900-
GREATER PHOENIX AREA

CITY           SKY/WX    TMP DP  RH WIND       PRES   REMARKS
PHOENIX        MOSUNNY   77  23  13 CALM      29.96F
6HR MIN TEMP:  59; 6HR MAX TEMP:  78;

BUCKEYE        SUNNY     75  30  19 SW5       29.97F
GLENDALE       SUNNY     77  23  13 VRB5      29.98F
LUKE AFB       SUNNY     76  26  15 S6        29.95F
6HR MIN TEMP:  52; 6HR MAX TEMP:  76;

DEER VALLEY    SUNNY     75  19  12 CALM      29.96F
6HR MIN TEMP:  53; 6HR MAX TEMP:  75;

SCOTTSDALE     SUNNY     75  22  13 VRB5      29.99F
6HR MIN TEMP:  56; 6HR MAX TEMP:  75;

MESA-FALCON    SUNNY     73  23  15 SW6       29.98F
MESA-GATEWAY   SUNNY     73  25  16 CALM      30.00F
CHANDLER       SUNNY     75  23  14 SW6       29.98F
$$

AZZ027-028-181900-
SOUTHWEST MARICOPA COUNTY AND PINAL COUNTY

CITY           SKY/WX    TMP DP  RH WIND       PRES   REMARKS
CASA GRANDE    SUNNY     77  23  13 W6        29.97F
6HR MIN TEMP:  48; 6HR MAX TEMP:  77;

GILA BEND      FAIR      82  17   9 W8        29.95F
6HR MIN TEMP:  55; 6HR MAX TEMP:  82;

$$

AZZ503-504-507>509-181900-
SOUTHEAST ARIZONA

CITY           SKY/WX    TMP DP  RH WIND       PRES   REMARKS
TUCSON         SUNNY     74  18  12 W6        30.05F
6HR MIN TEMP:  49; 6HR MAX TEMP:  75;

DAVIS-MONTHAN  SUNNY     72  17  12 NW10G24   30.03F
6HR MIN TEMP:  47; 6HR MAX TEMP:  72;

RYAN FIELD       N/A     73  21  14 W7        30.04F
NOGALES        SUNNY     70  22  16 W9        30.08F
6HR MIN TEMP:  38; 6HR MAX TEMP:  70;

SIERRA VISTA   SUNNY     66  19  16 W10G23    30.10F
6HR MIN TEMP:  49; 6HR MAX TEMP:  67; 6HR PCP:  3.12;

DOUGLAS        SUNNY     69  22  16 VRB6      30.07F
6HR MIN TEMP:  36; 6HR MAX TEMP:  69;

SAFFORD        SUNNY     73  20  13 NW12G18   30.00F
6HR MIN TEMP:  41; 6HR MAX TEMP:  73;

$$

AZZ020-021-025-026-031-181900-
SOUTHWEST ARIZONA

CITY           SKY/WX    TMP DP  RH WIND       PRES   REMARKS
YUMA           SUNNY     84  32  15 W8        29.95S
6HR MIN TEMP:  60; 6HR MAX TEMP:  84;

$$

CAZ031-033-041-043-047-048-061-181900-
SOUTHERN CALIFORNIA

CITY           SKY/WX    TMP DP  RH WIND       PRES   REMARKS
DOWNTOWN L.A.  SUNNY     76  40  27 VRB3      30.01S
6HR MIN TEMP:  56; 6HR MAX TEMP:  76;

L.A. AIRPORT   SUNNY     70  45  40 SW7       30.02S
6HR MIN TEMP:  55; 6HR MAX TEMP:  72;

SAN DIEGO      SUNNY     72  34  24 W5        30.04F
6HR MIN TEMP:  58; 6HR MAX TEMP:  72;

BURBANK        SUNNY     75  27  17 E8        30.02R
6HR MIN TEMP:  54; 6HR MAX TEMP:  75;

ONTARIO        SUNNY     74  23  15 SW5       30.02S
6HR MIN TEMP:  55; 6HR MAX TEMP:  74;

RIVERSIDE      SUNNY     76  24  14 CALM      30.02S
6HR MIN TEMP:  51; 6HR MAX TEMP:  76;

PALM SPRINGS   SUNNY     87  15   7 NE3       29.95S
6HR MIN TEMP:  60; 6HR MAX TEMP:  87;

EL CENTRO NAS  SUNNY     84  25  11 VRB3      29.93S
6HR MIN TEMP:  55; 6HR MAX TEMP:  85;

IMPERIAL       SUNNY     84  26  12 CALM      29.93S
6HR MIN TEMP:  54; 6HR MAX TEMP:  85;

BLYTHE         SUNNY     81  22  11 VRB5      29.94S
6HR MIN TEMP:  54; 6HR MAX TEMP:  82;

NEEDLES        SUNNY     80  15   8 VRB3      29.95F
6HR MIN TEMP:  57; 6HR MAX TEMP:  80;

$$

NVZ020-UTZ003-181900-
SOUTHERN NEVADA-UTAH

CITY           SKY/WX    TMP DP  RH WIND       PRES   REMARKS
LAS VEGAS      SUNNY     76  15  10 S7        29.94F
6HR MIN TEMP:  58; 6HR MAX TEMP:  76;

SALT LAKE CITY MOSUNNY   60  37  42 NW10      30.04S
6HR MIN TEMP:  42; 6HR MAX TEMP:  60;

$$

NMZ009-TXZ055-181900-
NEW MEXICO-WEST TEXAS

CITY           SKY/WX    TMP DP  RH WIND       PRES   REMARKS
ALBUQUERQUE    PTSUNNY   52  27  38 N9        30.01F
6HR MIN TEMP:  37; 6HR MAX TEMP:  53;

EL PASO        MOSUNNY   67  14  13 W9G17     30.01F
6HR MIN TEMP:  49; 6HR MAX TEMP:  68;

$$


........................KEY........................
SKY/WX - SKY CONDITION/WEATHER
TMP    - TEMPERATURE IN FAHRENHEIT
DP     - DEW POINT IN FAHRENHEIT
RH     - RELATIVE HUMIDITY IN PERCENT
WIND   - DIRECTION AND SPEED IN MILES PER HOUR (MPH)
VRB    - VARIABLE WIND DIRECTION
PRES   - MEAN SEA LEVEL PRESSURE IN INCHES OF MERCURY
         F - FALLING PRESSURE   R - RISING PRESSURE
         S - STEADY PRESSURE
VSB    - VISIBILITY IN MILES
HX     - HEAT INDEX IN FAHRENHEIT
WCI    - WIND CHILL INDEX IN FAHRENHEIT
TC     - TEMPERATURE IN CELSIUS WHICH IS ALSO KNOWN AS
         TEMPERATURE IN CENTIGRADE
AFB    - AIR FORCE BASE
         LUKE AFB IS LUKE AIR FORCE BASE
         DAVIS-MONTHAN IS DAVIS-MONTHAN AIR FORCE BASE
NAS    - NAVAL AIR STATION
         EL CENTRO NAS IS EL CENTRO NAVAL AIR STATION
N/A    - NOT AVAILABLE



USA.gov is the U.S. government's official web portal to all federal, state and local government web resources and services.